Meteo Giornale » Osservazioni meteo Italia » Verona-Villafranca

ore: 16:20 - Osservazioni Meteo Verona-Villafranca
Lat. 45° 23' N Lon. 10° 52' E Alt. 67 metri s.l.m.

poco_nuvoloso Europe/Rome

16 °C

Poco Nuvoloso

Temp. 24 Ore

8 °C

18 °C

Nord

3.7 Km/h

Dew point 11 °C

Umidità 72 %

Visibilità  10 Km

Il sole sorge alle ore 07:12

Il sole tramonta alle ore 16:49

Data e Ora Cielo e Fenomeni T °C DP °C Um. % Pres. hPa Vis. km Vento km/h
Oggi h: 16:20 poco_nuvoloso Poco Nuvoloso 16 11 72 1027 10 N 3.7
Oggi h: 15:50 poco_nuvoloso Poco Nuvoloso 17 12 72 1027 10 N 5.5
Oggi h: 15:20 nuvoloso Nuvoloso 17 11 67 1027 10 N 3.7
Oggi h: 14:50 nuvoloso Nuvoloso 17 11 67 1027 10 N 3.7
Oggi h: 14:20 nuvoloso Nuvoloso 18 12 67 1027 9 N 3.7
Oggi h: 13:50 nuvoloso Nuvoloso 17 11 67 1028 9 N 3.7
Oggi h: 13:20 poco_nuvoloso Poco Nuvoloso 17 11 67 1028 10 N 3.7
Oggi h: 12:50 poco_nuvoloso Poco Nuvoloso 17 11 67 1028 9 N 3.7
Oggi h: 12:20 poco_nuvoloso Poco Nuvoloso 17 11 67 1029 9 N 3.7
Oggi h: 11:50 sereno Sereno 16 11 72 1029 10 N 3.7
Oggi h: 11:20 sereno Sereno 16 12 77 1029 8 N 5.5
Oggi h: 10:50 sereno Sereno 15 12 82 1030 7 SO 7.4
Oggi h: 10:20 sereno Sereno 14 12 87 1030 7 N 3.7
Oggi h: 09:50 sereno Sereno 13 11 87 1029 6 N 1.8
Oggi h: 09:20 sereno Sereno 12 11 93 1029 6 N 1.8
Oggi h: 08:50 sereno Sereno 10 10 100 1029 6 N 1.8
Oggi h: 08:20 sereno Sereno 9 9 100 1029 6 N 3.7
Oggi h: 07:50 sereno Sereno 8 8 100 1029 6 N 3.7
Oggi h: 07:20 foschia Foschia 9 8 93 1028 4 N/NO 7.4
Oggi h: 06:50 foschia Foschia 9 8 93 1028 4 N/NO 7.4
Oggi h: 06:20 foschia Foschia 8 8 100 1028 3 N 5.5
Oggi h: 05:50 foschia Foschia 8 8 100 1028 3 N 5.5
Oggi h: 05:20 foschia Foschia 9 9 100 1028 3 N 5.5
Oggi h: 04:50 foschia Foschia 8 8 100 1028 3 NO 7.4
Oggi h: 04:20 foschia Foschia 10 9 93 1028 3 N 5.5
Oggi h: 03:50 foschia Foschia 9 9 100 1028 3 N 5.5
Oggi h: 03:20 foschia Foschia 10 9 93 1028 3 N/NO 7.4
Oggi h: 02:50 foschia Foschia 10 10 100 1028 3 N 5.5
Oggi h: 02:20 foschia Foschia 10 10 100 1028 3 N 5.5
Oggi h: 01:50 foschia Foschia 11 11 100 1028 3 N/NO 9.3
Oggi h: 01:20 nebbia Banco di Nebbia 11 11 100 1028 1 N 7.4
Oggi h: 00:50 nebbia Banco di Nebbia 11 11 100 1028 0.5 N 1.8
Oggi h: 00:20 nebbia Banco di Nebbia 12 12 100 1028 0.5 N 1.8
Ieri h: 23:50 foschia Foschia 13 13 100 1028 4 N 3.7
Ieri h: 23:20 foschia Foschia 13 13 100 1028 4 N 3.7
Ieri h: 22:50 foschia Foschia 13 13 100 1028 3 N 5.5
Ieri h: 22:20 foschia Foschia 13 13 100 1028 3 N 3.7
Ieri h: 21:50 foschia Foschia 13 13 100 1028 3 N 5.5
Ieri h: 21:20 nebbia Banco di Nebbia 12 12 100 1028 0.8 N 1.8
Ieri h: 20:50 foschia Foschia 13 12 93 1028 5 N 5.5
Ieri h: 20:20 nebbia Nebbia a Strati 12 12 100 1027 7 N 5.5
Ieri h: 19:50 nebbia Nebbia a Strati 12 12 100 1027 7 N 3.7
Ieri h: 19:20 poco_nuvoloso Poco Nuvoloso 12 12 100 1027 7 N 1.8
Ieri h: 18:50 poco_nuvoloso Poco Nuvoloso 13 12 93 1027 7 N 1.8
Ieri h: 18:20 poco_nuvoloso Poco Nuvoloso 13 12 93 1027 7 N 1.8
Ieri h: 17:50 poco_nuvoloso Poco Nuvoloso 13 12 93 1027 8 N 3.7
Ieri h: 17:20 poco_nuvoloso Poco Nuvoloso 15 13 87 1027 7 N 3.7
Ieri h: 16:50 poco_nuvoloso Poco Nuvoloso 15 13 87 1027 7 N 3.7